CW6132 Weather Reports


Display with metric or nautical units.
time (UTC)temp
F
wind
direction
speed
MPH
gust
MPH
rain 1hr
in
rain 24hr
in
rain mn
in
humidity
%
barometer
mb
20260506193204 85 313 1.0 3.0 0.00 0.01 0.01 80 1007.2
20260506192704 86 290 1.0 5.0 0.00 0.01 0.01 79 1007.2
20260506192205 87 162 1.0 3.0 0.00 0.01 0.01 78 1007.2
20260506191704 87 324 1.0 3.0 0.00 0.01 0.01 76 1007.2
20260506191204 88 281 1.0 2.0 0.00 0.01 0.01 76 1007.2
20260506190705 88 292 0.0 2.0 0.00 0.01 0.01 76 1007.3
20260506190204 88 295 1.0 2.0 0.00 0.01 0.01 76 1007.4
20260506185704 88 36 0.0 2.0 0.00 0.01 0.01 77 1007.5
20260506185204 88 293 1.0 3.0 0.00 0.01 0.01 75 1007.5
20260506184206 88 37 0.0 2.0 0.00 0.01 0.01 74 1007.7
20260506183704 87 8 0.0 2.0 0.00 0.01 0.01 76 1007.7
20260506183204 87 296 0.0 3.0 0.00 0.01 0.01 78 1007.8
20260506182704 86 0 0.0 2.0 0.00 0.01 0.01 78 1007.9
20260506181205 85 331 1.0 3.0 0.00 0.01 0.01 80 1008.1
20260506180704 85 325 1.0 2.0 0.00 0.01 0.01 80 1008.3
20260506180204 85 312 0.0 2.0 0.00 0.01 0.01 81 1008.4
20260506175704 85 268 1.0 2.0 0.00 0.01 0.01 80 1008.5
20260506175204 85 295 0.0 2.0 0.00 0.01 0.01 79 1008.4
20260506174704 86 193 0.0 2.0 0.00 0.01 0.01 80 1008.6
20260506172704 85 304 1.0 2.0 0.00 0.01 0.01 80 1008.7
20260506172204 84 8 1.0 2.0 0.00 0.01 0.01 81 1008.7
20260506171704 84 299 1.0 1.0 0.00 0.01 0.01 81 1008.7
20260506170704 83 305 1.0 2.0 0.00 0.01 0.01 84 1008.9
20260506170204 83 133 1.0 2.0 0.00 0.01 0.01 84 1009.0
20260506165704 82 321 1.0 1.0 0.01 0.01 0.01 85 1008.9
20260506165204 82 316 1.0 2.0 0.01 0.01 0.01 86 1009.0
20260506163706 81 288 0.0 2.0 0.01 0.01 0.01 88 1009.0
20260506163204 81 230 0.0 2.0 0.01 0.01 0.01 88 1008.9
20260506162204 81 258 0.0 1.0 0.00 0.00 0.00 89 1008.7
20260506161704 80 276 1.0 1.0 0.00 0.00 0.00 89 1008.7
20260506160704 80 308 0.0 1.0 0.00 0.00 0.00 90 1008.7
20260506160204 80 313 0.0 1.0 0.00 0.00 0.00 89 1008.7
20260506155703 80 294 0.0 1.0 0.00 0.00 0.00 88 1008.6
20260506154704 80 287 0.0 2.0 0.00 0.00 0.00 88 1008.6
20260506154205 80 307 0.0 1.0 0.00 0.00 0.00 88 1008.6
20260506153704 80 300 0.0 1.0 0.00 0.00 0.00 88 1008.6
20260506153205 80 283 0.0 1.0 0.00 0.00 0.00 88 1008.5
20260506152705 80 265 0.0 1.0 0.00 0.00 0.00 88 1008.3
20260506152204 80 260 1.0 1.0 0.00 0.00 0.00 88 1008.2
20260506151704 80 291 1.0 1.0 0.00 0.00 0.00 88 1008.2
20260506151204 80 241 0.0 1.0 0.00 0.00 0.00 88 1008.2
20260506150204 80 251 1.0 1.0 0.00 0.00 0.00 88 1008.1
20260506145704 80 254 0.0 1.0 0.00 0.00 0.00 88 1008.0
20260506144704 80 281 1.0 2.0 0.00 0.00 0.00 89 1007.9
20260506144204 80 294 1.0 2.0 0.00 0.00 0.00 89 1007.7
20260506143704 80 25 1.0 2.0 0.00 0.00 0.00 89 1007.6
20260506142704 80 214 1.0 1.0 0.00 0.00 0.00 89 1007.6
20260506142204 80 249 0.0 2.0 0.00 0.00 0.00 90 1007.7
20260506141704 79 226 1.0 1.0 0.00 0.00 0.00 90 1007.7
20260506141204 79 266 0.0 1.0 0.00 0.00 0.00 90 1007.8
20260506140704 79 343 0.0 2.0 0.00 0.00 0.00 91 1007.9
20260506140205 79 67 0.0 2.0 0.00 0.00 0.00 91 1007.9
20260506135704 79 188 0.0 2.0 0.00 0.00 0.00 92 1007.9
20260506135204 78 280 0.0 1.0 0.00 0.00 0.00 92 1007.9
20260506134705 78 218 1.0 2.0 0.00 0.00 0.00 92 1007.9
20260506134205 78 321 0.0 1.0 0.00 0.00 0.00 93 1007.9
20260506133704 78 199 0.0 1.0 0.00 0.00 0.00 93 1007.9
20260506133204 78 27 0.0 1.0 0.00 0.00 0.00 93 1008.0
20260506132704 78 233 0.0 1.0 0.00 0.00 0.00 94 1008.0
20260506132204 78 245 0.0 1.0 0.00 0.00 0.00 94 1008.0
20260506131704 77 246 0.0 1.0 0.00 0.00 0.00 94 1008.0
20260506131204 77 165 0.0 1.0 0.00 0.00 0.00 95 1008.0
20260506130704 77 284 0.0 1.0 0.00 0.00 0.00 95 1008.0
20260506130204 77 308 0.0 0.0 0.00 0.00 0.00 95 1008.1
20260506125705 77 184 0.0 1.0 0.00 0.00 0.00 95 1008.1
20260506125205 77 268 0.0 1.0 0.00 0.00 0.00 95 1008.0
20260506124704 77 286 0.0 1.0 0.00 0.00 0.00 95 1008.0
20260506124204 77 231 0.0 1.0 0.00 0.00 0.00 95 1008.0
20260506123703 77 255 0.0 0.0 0.00 0.00 0.00 95 1007.9
20260506123204 76 232 1.0 2.0 0.00 0.00 0.00 96 1007.8
20260506122703 76 327 0.0 1.0 0.00 0.00 0.00 96 1007.8
20260506122204 76 302 0.0 1.0 0.00 0.00 0.00 96 1007.8
20260506121204 76 296 0.0 1.0 0.00 0.00 0.00 96 1007.6
20260506120704 76 146 0.0 1.0 0.00 0.00 0.00 96 1007.5
20260506120204 76 260 0.0 1.0 0.00 0.00 0.00 96 1007.5
20260506115204 76 287 0.0 1.0 0.00 0.00 0.00 96 1007.3
20260506114204 76 206 0.0 1.0 0.00 0.00 0.00 96 1007.3
20260506113704 76 289 0.0 2.0 0.00 0.00 0.00 96 1007.2
20260506113203 76 336 1.0 2.0 0.00 0.00 0.00 96 1007.1
20260506112704 76 289 0.0 2.0 0.00 0.00 0.00 96 1007.0
20260506112204 76 264 0.0 1.0 0.00 0.00 0.00 96 1007.0
20260506111704 76 279 1.0 2.0 0.00 0.00 0.00 97 1006.9
20260506110704 75 191 0.0 1.0 0.00 0.00 0.00 97 1006.8
20260506105704 75 265 0.0 1.0 0.00 0.00 0.00 97 1006.7
20260506105204 75 298 0.0 1.0 0.00 0.00 0.00 97 1006.8
20260506104705 75 143 0.0 1.0 0.00 0.00 0.00 97 1006.8
20260506104204 75 315 0.0 2.0 0.00 0.00 0.00 97 1006.7
20260506103705 75 190 0.0 1.0 0.00 0.00 0.00 97 1006.7
20260506103204 75 206 0.0 1.0 0.00 0.00 0.00 96 1006.8
20260506102204 75 247 0.0 1.0 0.00 0.00 0.00 96 1006.7
20260506101704 75 149 0.0 1.0 0.00 0.00 0.00 96 1006.7
20260506101205 75 200 1.0 3.0 0.00 0.00 0.00 96 1006.7
20260506100704 75 216 1.0 3.0 0.00 0.00 0.00 96 1006.7
20260506100203 75 276 0.0 1.0 0.00 0.00 0.00 96 1006.7
20260506095704 75 274 0.0 1.0 0.00 0.00 0.00 96 1006.7
20260506095204 75 269 0.0 2.0 0.00 0.00 0.00 96 1006.6
20260506094204 75 146 1.0 1.0 0.00 0.00 0.00 96 1006.6
20260506093703 75 300 0.0 1.0 0.00 0.00 0.00 96 1006.6
20260506093204 75 282 0.0 1.0 0.00 0.00 0.00 95 1006.5
20260506092703 75 39 0.0 1.0 0.00 0.00 0.00 95 1006.5
20260506092204 76 289 0.0 1.0 0.00 0.00 0.00 95 1006.5
20260506091704 76 297 0.0 1.0 0.00 0.00 0.00 95 1006.6
20260506090704 76 283 1.0 2.0 0.00 0.00 0.00 94 1006.7
20260506085704 76 241 0.0 1.0 0.00 0.00 0.00 94 1006.7
20260506084704 76 284 1.0 3.0 0.00 0.00 0.00 93 1006.8
20260506084204 76 237 0.0 1.0 0.00 0.00 0.00 93 1006.8
20260506083704 77 253 1.0 2.0 0.00 0.00 0.00 93 1006.9
20260506083204 77 283 0.0 1.0 0.00 0.00 0.00 93 1007.0
20260506082704 77 291 1.0 1.0 0.00 0.00 0.00 93 1007.0
20260506082204 77 295 1.0 1.0 0.00 0.00 0.00 93 1007.0
20260506081704 77 293 0.0 1.0 0.00 0.00 0.00 92 1007.0
20260506081206 77 295 0.0 1.0 0.00 0.00 0.00 92 1007.0
20260506080204 77 275 1.0 2.0 0.00 0.00 0.00 92 1007.0
20260506073205 77 232 1.0 3.0 0.00 0.00 0.00 91 1007.3
20260506072704 78 206 0.0 1.0 0.00 0.00 0.00 91 1007.4
20260506072204 78 6 1.0 2.0 0.00 0.00 0.00 91 1007.4
20260506071704 78 30 1.0 1.0 0.00 0.00 0.00 91 1007.4
20260506070704 78 265 0.0 1.0 0.00 0.00 0.00 91 1007.5
20260506070204 78 180 0.0 1.0 0.00 0.00 0.00 91 1007.5
20260506062204 78 71 0.0 1.0 0.00 0.00 0.00 90 1007.8
20260506061703 78 287 0.0 1.0 0.00 0.00 0.00 90 1007.7
20260506060704 78 51 0.0 1.0 0.00 0.00 0.00 90 1007.8
20260506060205 78 291 1.0 1.0 0.00 0.00 0.00 90 1007.6
20260506051204 78 264 1.0 3.0 0.00 0.00 0.00 90 1007.7
20260506050704 78 335 1.0 3.0 0.00 0.00 0.00 90 1007.7
20260506044704 77 301 0.0 3.0 0.00 0.00 0.00 91 1007.7
20260506043704 77 288 1.0 3.0 0.00 0.00 0.00 91 1007.6
20260506043205 77 270 1.0 2.0 0.00 0.00 0.00 91 1007.6
20260506042704 77 275 0.0 2.0 0.00 0.00 0.00 91 1007.7
20260506042204 77 269 1.0 2.0 0.00 0.00 0.00 91 1007.7
20260506041705 77 287 0.0 2.0 0.00 0.00 0.00 92 1007.7
20260506041205 77 308 0.0 2.0 0.00 0.00 0.00 92 1007.7
20260506040704 77 275 1.0 3.0 0.00 0.00 0.00 91 1007.6
20260506040204 77 304 1.0 3.0 0.00 0.00 0.00 91 1007.6
20260506035704 77 319 0.0 2.0 0.00 0.00 0.00 91 1007.5
20260506035204 77 58 1.0 2.0 0.00 0.00 0.00 92 1007.5
20260506034704 77 267 1.0 3.0 0.00 0.00 0.00 91 1007.4
20260506034204 78 278 0.0 2.0 0.00 0.00 0.00 91 1007.4
20260506033704 78 273 1.0 2.0 0.00 0.00 0.00 91 1007.3
20260506033205 78 266 0.0 2.0 0.00 0.00 0.00 90 1007.2
20260506032704 78 4 1.0 3.0 0.00 0.00 0.00 90 1007.2
20260506032204 78 324 0.0 2.0 0.00 0.00 0.00 89 1007.2
20260506031705 78 357 1.0 3.0 0.00 0.00 0.00 89 1007.3
20260506031204 78 130 1.0 3.0 0.00 0.00 0.00 89 1007.2
20260506030704 78 301 1.0 3.0 0.00 0.00 0.00 89 1007.1
20260506030204 78 274 0.0 2.0 0.00 0.00 0.00 90 1007.0
20260506025704 78 297 1.0 2.0 0.00 0.00 0.00 89 1007.0
20260506025204 78 255 1.0 5.0 0.00 0.00 0.00 89 1006.9
20260506024704 78 299 1.0 5.0 0.00 0.00 0.00 89 1006.9
20260506024204 78 195 1.0 2.0 0.00 0.00 0.00 89 1006.9
20260506023703 78 280 1.0 2.0 0.00 0.00 0.00 88 1006.7
20260506021704 79 70 1.0 2.0 0.00 0.00 0.00 88 1006.5
20260506020704 79 42 1.0 3.0 0.00 0.00 0.00 87 1006.4
20260506015704 79 327 1.0 3.0 0.00 0.00 0.00 86 1006.2
20260506015205 79 341 0.0 2.0 0.00 0.00 0.00 86 1006.2
20260506014204 79 303 1.0 3.0 0.00 0.00 0.00 86 1006.0
20260506013704 79 206 1.0 5.0 0.00 0.00 0.00 86 1005.9
20260506013204 79 281 1.0 3.0 0.00 0.00 0.00 85 1005.8
20260506011704 80 270 1.0 3.0 0.00 0.00 0.00 84 1005.7
20260506011204 80 307 1.0 2.0 0.00 0.00 0.00 84 1005.7
20260506010704 80 267 1.0 3.0 0.00 0.00 0.00 84 1005.6
20260506010205 80 12 1.0 2.0 0.00 0.00 0.00 84 1005.6
20260506005704 80 284 1.0 3.0 0.00 0.00 0.00 84 1005.6
20260506005204 80 255 1.0 2.0 0.00 0.00 0.00 83 1005.5
20260506004704 80 300 1.0 2.0 0.00 0.00 0.00 83 1005.4
20260506004204 80 24 1.0 3.0 0.00 0.00 0.00 82 1005.3
20260506003704 80 310 1.0 5.0 0.00 0.00 0.00 81 1005.2
20260506003204 81 269 1.0 5.0 0.00 0.00 0.00 81 1005.2
20260506001204 81 293 1.0 3.0 0.00 0.00 0.00 80 1005.2
20260506000705 81 276 1.0 2.0 0.00 0.00 0.00 80 1005.2
20260505235704 82 247 1.0 3.0 0.00 0.00 0.00 78 1005.1
20260505235203 82 258 1.0 2.0 0.00 0.00 0.00 78 1005.1
20260505234704 82 319 1.0 2.0 0.00 0.00 0.00 78 1005.2
20260505234204 82 219 1.0 3.0 0.00 0.00 0.00 78 1005.2
20260505233703 82 307 1.0 3.0 0.00 0.00 0.00 78 1005.2
20260505233204 82 271 1.0 6.0 0.00 0.00 0.00 78 1005.2
20260505232704 82 304 1.0 3.0 0.00 0.00 0.00 78 1005.1
20260505232204 82 305 1.0 3.0 0.00 0.00 0.00 78 1005.1
20260505231704 82 291 1.0 3.0 0.00 0.00 0.00 78 1005.3
20260505230704 82 351 1.0 3.0 0.00 0.00 0.00 78 1005.2
20260505230204 82 271 1.0 5.0 0.00 0.00 0.00 78 1005.2
20260505225204 82 320 1.0 2.0 0.00 0.00 0.00 78 1005.2
20260505224704 82 274 1.0 2.0 0.00 0.00 0.00 78 1005.2
20260505223704 83 279 1.0 5.0 0.00 0.00 0.00 77 1005.3
20260505222704 83 302 1.0 2.0 0.00 0.00 0.00 77 1005.3
20260505222204 83 257 1.0 5.0 0.00 0.00 0.00 78 1005.3
20260505221704 83 322 1.0 3.0 0.00 0.00 0.00 78 1005.3
20260505221206 83 284 1.0 2.0 0.00 0.00 0.00 78 1005.4
20260505220204 83 267 1.0 3.0 0.00 0.00 0.00 77 1005.5
20260505215706 83 283 1.0 3.0 0.00 0.00 0.00 77 1005.5
20260505215203 83 261 1.0 3.0 0.00 0.00 0.00 77 1005.5
20260505214704 83 13 1.0 3.0 0.00 0.00 0.00 77 1005.6
20260505214205 83 266 1.0 3.0 0.00 0.00 0.00 77 1005.6
20260505213704 83 308 1.0 3.0 0.00 0.00 0.00 77 1005.6
20260505211704 84 302 1.0 5.0 0.00 0.00 0.00 76 1005.8
20260505211204 84 341 1.0 3.0 0.00 0.00 0.00 77 1005.9
20260505210704 84 313 1.0 3.0 0.00 0.00 0.00 77 1005.8
20260505205705 84 281 1.0 7.0 0.00 0.00 0.00 76 1006.1
20260505205203 84 290 1.0 5.0 0.00 0.00 0.00 77 1006.0
20260505204203 85 283 1.0 3.0 0.00 0.00 0.00 75 1006.1
20260505203704 84 298 1.0 3.0 0.00 0.00 0.00 76 1006.4
20260505203204 84 281 1.0 2.0 0.00 0.00 0.00 77 1006.3
20260505202704 84 76 1.0 5.0 0.00 0.00 0.00 77 1006.5
20260505202205 84 308 1.0 3.0 0.00 0.00 0.00 77 1006.6
20260505201703 84 205 1.0 2.0 0.00 0.00 0.00 78 1006.7
20260505195704 83 294 1.0 2.0 0.00 0.00 0.00 78 1006.8
20260505195204 83 279 1.0 2.0 0.00 0.00 0.00 77 1006.8
20260505194704 84 273 2.0 5.0 0.00 0.00 0.00 77 1006.8
20260505194204 84 324 1.0 5.0 0.00 0.00 0.00 76 1006.9
20260505193704 85 318 1.0 3.0 0.00 0.00 0.00 75 1006.9